Time,TemperatureF,DewpointF,PressureIn,WindDirection,WindDirectionDegrees,WindSpeedMPH,WindSpeedGustMPH,Humidity,HourlyPrecipIn,Conditions,Clouds,dailyrainin,SoftwareType,DateUTC
2013-06-22 09:52:00,63.0,62.0,-100.00,SE,125,0.0,0.0,97,-99.99,,,-99.99,,2013-06-22 14:52:00,
2013-06-22 10:12:00,63.0,62.0,-100.00,SE,125,0.0,0.0,97,-99.99,,,-99.99,,2013-06-22 15:12:00,
2013-06-22 10:22:00,63.0,62.0,-100.00,SE,125,0.0,0.0,97,-99.99,,,-99.99,,2013-06-22 15:22:00,
2013-06-22 10:34:00,63.0,62.0,-100.00,SE,125,0.0,0.0,97,-99.99,,,-99.99,,2013-06-22 15:34:00,
2013-06-22 10:43:00,63.0,62.0,-100.00,SE,125,0.0,0.0,97,-99.99,,,-99.99,,2013-06-22 15:43:00,
2013-06-22 10:52:00,65.0,64.0,-100.00,East,85,0.0,0.0,97,-99.99,,,-99.99,,2013-06-22 15:52:00,
2013-06-22 11:12:00,65.0,64.0,-100.00,East,85,0.0,0.0,97,-99.99,,,-99.99,,2013-06-22 16:12:00,
2013-06-22 11:22:00,65.0,64.0,-100.00,East,85,0.0,0.0,97,-99.99,,,-99.99,,2013-06-22 16:22:00,
2013-06-22 11:34:00,65.0,64.0,-100.00,East,85,0.0,0.0,97,-99.99,,,-99.99,,2013-06-22 16:34:00,
2013-06-22 11:43:00,65.0,64.0,-100.00,East,85,0.0,0.0,97,-99.99,,,-99.99,,2013-06-22 16:43:00,
2013-06-22 11:52:00,69.0,68.0,-100.00,NNE,15,0.0,0.0,97,-99.99,,,-99.99,,2013-06-22 16:52:00,
2013-06-22 12:11:00,69.0,68.0,-100.00,NNE,15,0.0,0.0,97,-99.99,,,-99.99,,2013-06-22 17:11:00,
2013-06-22 12:22:00,69.0,68.0,-100.00,NNE,15,0.0,0.0,97,-99.99,,,-99.99,,2013-06-22 17:22:00,
2013-06-22 12:34:00,69.0,68.0,-100.00,NNE,15,0.0,0.0,97,-99.99,,,-99.99,,2013-06-22 17:34:00,
2013-06-22 12:43:00,69.0,68.0,-100.00,NNE,15,0.0,0.0,97,-99.99,,,-99.99,,2013-06-22 17:43:00,
2013-06-22 12:52:00,71.0,70.0,-100.00,North,5,0.0,0.0,97,-99.99,,,-99.99,,2013-06-22 17:52:00,
2013-06-22 13:12:00,71.0,70.0,-100.00,North,5,0.0,0.0,97,-99.99,,,-99.99,,2013-06-22 18:12:00,
2013-06-22 13:23:00,71.0,70.0,-100.00,North,5,0.0,0.0,97,-99.99,,,-99.99,,2013-06-22 18:23:00,
2013-06-22 13:34:00,71.0,70.0,-100.00,North,5,0.0,0.0,97,-99.99,,,-99.99,,2013-06-22 18:34:00,
2013-06-22 13:43:00,71.0,70.0,-100.00,North,5,0.0,0.0,97,-99.99,,,-99.99,,2013-06-22 18:43:00,
2013-06-22 13:52:00,73.0,69.0,-100.00,ESE,115,0.0,0.0,89,-99.99,,,-99.99,,2013-06-22 18:52:00,
2013-06-22 14:11:00,73.0,69.0,-100.00,ESE,115,0.0,0.0,89,-99.99,,,-99.99,,2013-06-22 19:11:00,
2013-06-22 14:22:00,73.0,69.0,-100.00,ESE,115,0.0,0.0,89,-99.99,,,-99.99,,2013-06-22 19:22:00,
2013-06-22 14:33:00,73.0,69.0,-100.00,ESE,115,0.0,0.0,89,-99.99,,,-99.99,,2013-06-22 19:33:00,
2013-06-22 14:43:00,73.0,69.0,-100.00,ESE,115,0.0,0.0,89,-99.99,,,-99.99,,2013-06-22 19:43:00,
2013-06-22 14:52:00,73.0,69.0,-100.00,East,95,0.0,0.0,86,-99.99,,,-99.99,,2013-06-22 19:52:00,
2013-06-22 15:11:00,73.0,69.0,-100.00,East,95,0.0,0.0,86,-99.99,,,-99.99,,2013-06-22 20:11:00,
2013-06-22 15:22:00,73.0,69.0,-100.00,East,95,0.0,0.0,86,-99.99,,,-99.99,,2013-06-22 20:22:00,
2013-06-22 15:33:00,73.0,69.0,-100.00,East,95,0.0,0.0,86,-99.99,,,-99.99,,2013-06-22 20:33:00,
2013-06-22 15:43:00,73.0,69.0,-100.00,East,95,0.0,0.0,86,-99.99,,,-99.99,,2013-06-22 20:43:00,
2013-06-22 15:52:00,74.0,70.0,-100.00,ESE,105,0.0,0.0,88,-99.99,,,-99.99,,2013-06-22 20:52:00,
2013-06-22 16:11:00,74.0,70.0,-100.00,ESE,105,0.0,0.0,88,-99.99,,,-99.99,,2013-06-22 21:11:00,
2013-06-22 16:22:00,74.0,70.0,-100.00,ESE,105,0.0,0.0,88,-99.99,,,-99.99,,2013-06-22 21:22:00,
2013-06-22 16:34:00,74.0,70.0,-100.00,ESE,105,0.0,0.0,88,-99.99,,,-99.99,,2013-06-22 21:34:00,
2013-06-22 16:43:00,74.0,70.0,-100.00,ESE,105,0.0,0.0,88,-99.99,,,-99.99,,2013-06-22 21:43:00,
2013-06-22 16:52:00,74.0,70.0,-100.00,East,100,0.0,0.0,87,-99.99,,,-99.99,,2013-06-22 21:52:00,
2013-06-22 17:12:00,74.0,70.0,-100.00,East,100,0.0,0.0,87,-99.99,,,-99.99,,2013-06-22 22:12:00,
2013-06-22 17:23:00,74.0,70.0,-100.00,East,100,0.0,0.0,87,-99.99,,,-99.99,,2013-06-22 22:23:00,
2013-06-22 17:33:00,74.0,70.0,-100.00,East,100,0.0,0.0,87,-99.99,,,-99.99,,2013-06-22 22:33:00,
2013-06-22 17:43:00,74.0,70.0,-100.00,East,100,0.0,0.0,87,-99.99,,,-99.99,,2013-06-22 22:43:00,
2013-06-22 17:52:00,74.0,70.0,-100.00,ESE,110,0.0,0.0,87,-99.99,,,-99.99,,2013-06-22 22:52:00,
2013-06-22 18:11:00,74.0,70.0,-100.00,ESE,110,0.0,0.0,87,-99.99,,,-99.99,,2013-06-22 23:11:00,
2013-06-22 18:22:00,74.0,70.0,-100.00,ESE,110,0.0,0.0,87,-99.99,,,-99.99,,2013-06-22 23:22:00,
2013-06-22 18:34:00,74.0,70.0,-100.00,ESE,110,0.0,0.0,87,-99.99,,,-99.99,,2013-06-22 23:34:00,
2013-06-22 18:43:00,74.0,70.0,-100.00,ESE,110,0.0,0.0,87,-99.99,,,-99.99,,2013-06-22 23:43:00,
2013-06-22 18:53:00,73.0,70.0,-100.00,ESE,115,0.0,0.0,91,-99.99,,,-99.99,,2013-06-22 23:53:00,
2013-06-22 19:11:00,73.0,70.0,-100.00,ESE,115,0.0,0.0,91,-99.99,,,-99.99,,2013-06-23 00:11:00,
2013-06-22 19:22:00,73.0,70.0,-100.00,ESE,115,0.0,0.0,91,-99.99,,,-99.99,,2013-06-23 00:22:00,
2013-06-22 19:33:00,73.0,70.0,-100.00,ESE,115,0.0,0.0,91,-99.99,,,-99.99,,2013-06-23 00:33:00,
2013-06-22 19:42:00,73.0,70.0,-100.00,ESE,115,0.0,0.0,91,-99.99,,,-99.99,,2013-06-23 00:42:00,
2013-06-22 19:52:00,70.0,68.0,-100.00,ESE,105,0.0,0.0,93,-99.99,,,-99.99,,2013-06-23 00:52:00,
2013-06-22 20:11:00,70.0,68.0,-100.00,ESE,105,0.0,0.0,93,-99.99,,,-99.99,,2013-06-23 01:11:00,
2013-06-22 20:22:00,70.0,68.0,-100.00,ESE,105,0.0,0.0,93,-99.99,,,-99.99,,2013-06-23 01:22:00,
2013-06-22 20:32:00,70.0,68.0,-100.00,ESE,105,0.0,0.0,93,-99.99,,,-99.99,,2013-06-23 01:32:00,
2013-06-22 20:42:00,70.0,68.0,-100.00,ESE,105,0.0,0.0,93,-99.99,,,-99.99,,2013-06-23 01:42:00,
2013-06-22 20:52:00,68.0,66.0,-100.00,East,90,0.0,0.0,95,-99.99,,,-99.99,,2013-06-23 01:52:00,
2013-06-22 21:11:00,68.0,66.0,-100.00,East,90,0.0,0.0,95,-99.99,,,-99.99,,2013-06-23 02:11:00,
2013-06-22 21:21:00,68.0,66.0,-100.00,East,90,0.0,0.0,95,-99.99,,,-99.99,,2013-06-23 02:21:00,
2013-06-22 21:31:00,68.0,66.0,-100.00,East,90,0.0,0.0,95,-99.99,,,-99.99,,2013-06-23 02:31:00,
2013-06-22 21:41:00,68.0,66.0,-100.00,East,90,0.0,0.0,95,-99.99,,,-99.99,,2013-06-23 02:41:00,
2013-06-22 22:11:00,66.0,65.0,-100.00,ESE,105,0.0,0.0,96,-99.99,,,-99.99,,2013-06-23 03:11:00,
2013-06-22 22:21:00,66.0,65.0,-100.00,ESE,105,0.0,0.0,96,-99.99,,,-99.99,,2013-06-23 03:21:00,
2013-06-22 22:31:00,66.0,65.0,-100.00,ESE,105,0.0,0.0,96,-99.99,,,-99.99,,2013-06-23 03:31:00,
2013-06-22 22:41:00,66.0,65.0,-100.00,ESE,105,0.0,0.0,96,-99.99,,,-99.99,,2013-06-23 03:41:00,
2013-06-22 22:51:00,66.0,65.0,-100.00,ESE,105,0.0,0.0,96,-99.99,,,-99.99,,2013-06-23 03:51:00,
2013-06-22 22:52:00,67.0,66.0,-100.00,ESE,110,0.0,0.0,97,-99.99,,,-99.99,,2013-06-23 03:52:00,
2013-06-22 23:11:00,67.0,66.0,-100.00,ESE,110,0.0,0.0,97,-99.99,,,-99.99,,2013-06-23 04:11:00,
2013-06-22 23:21:00,67.0,66.0,-100.00,ESE,110,0.0,0.0,97,-99.99,,,-99.99,,2013-06-23 04:21:00,
2013-06-22 23:31:00,67.0,66.0,-100.00,ESE,110,0.0,0.0,97,-99.99,,,-99.99,,2013-06-23 04:31:00,
2013-06-22 23:42:00,67.0,66.0,-100.00,ESE,110,0.0,0.0,97,-99.99,,,-99.99,,2013-06-23 04:42:00,